[[{"header":{"parameterUnit":"m.s-1","parameterCategory":1,"la1":30.2991,"la2":30.254,"lo1":-89.0895,"lo2":-89.0444,"dy":0.0017,"dx":0.0017,"nx":28,"ny":28,"refTime":"2023-09-10T09:00:00:Z","depth":0,"parameterNumber":2,"parameterNumberName":"U-component_of_WINDS"},"data":[0,0,0,0,0,0,0,0,0,0,0,0,0,0,0,0,0,0,0,0,0,0,0,0,0,0,0,0,0,0,0,0,0,0,0,0,0,0,0,0,0,0,0,0,0,0,0,0,0,0,0,0,0,0,0,0,0,0,0.444,0.4442,0,0.4559,0.4561,0.4562,0.4587,0.4586,0.4585,0.4585,0.4712,0.4716,0.472,0,0,0,0,0,0,0,0,0,0,0,0,0,0.424,0.4243,0.444,0.4442,0.4443,0.4559,0.4561,0.4562,0.4587,0.4586,0.4585,0.4584,0.471,0.4715,0.472,0,0,0,0,0,0,0,0,0,0,0,0,0,0.434,0.4245,0.444,0.447,0.4473,0.4559,0.4561,0.4563,0.4588,0.4586,0.4585,0.4584,0.4709,0.4715,0.4721,0.4787,0,0,0.474,0.4743,0,0,0,0,0,0,0,0,0.4334,0.4347,0.4464,0.4468,0.4472,0.4557,0.4537,0.4638,0.4588,0.4544,0.4584,0.4583,0.4662,0.4672,0.4697,0.4793,0.4798,0.4741,0.4745,0.4747,0.4749,0,0,0,0,0,0,0,0.4327,0.4342,0.4488,0.4465,0.4471,0.4479,0.4491,0.4556,0.4609,0.4548,0.455,0.4564,0.4664,0.4691,0.47,0.48,0.4741,0.4746,0.475,0.4753,0.4957,0.4958,0,0,0,0,0,0,0.4314,0.4336,0.4484,0.4491,0.4398,0.4483,0.4497,0.4531,0.4609,0.4619,0.4565,0.4564,0.4681,0.4693,0.4705,0.4787,0.4747,0.4753,0.4757,0.4955,0.4957,0.4959,0,0,0,0,0,0,0.431,0.4327,0.4479,0.4414,0.4434,0.4488,0.4526,0.4534,0.4561,0.4621,0.4631,0.4582,0.468,0.4696,0.4766,0.4792,0.4756,0.4762,0.4953,0.4956,0.4958,0.4952,0,0,0,0,0,0,0.4304,0.4325,0.435,0.4415,0.4437,0.4536,0.4527,0.4537,0.4572,0.4572,0.464,0.465,0.468,0.4756,0.4772,0.48,0.4767,0.4951,0.4954,0.4957,0.495,0.4954,0.4957,0,0,0,0,0,0.4297,0.4344,0.4351,0.4369,0.4469,0.4538,0.4551,0.4583,0.4574,0.4599,0.4638,0.4648,0.4786,0.4763,0.4782,0.4811,0.495,0.4953,0.4957,0.4949,0.4953,0.4957,0,0,0,0,0,0,0.4283,0.4353,0.4361,0.4431,0.4478,0.4542,0.4575,0.4587,0.4639,0.4638,0.4677,0.4692,0.476,0.4793,0.4766,0.488,0.4868,0.4875,0.4855,0.486,0.4864,0.4854,0.4772,0,0,0,0,0,0.4288,0.4336,0.4396,0.4452,0.4475,0.4521,0.4552,0.4573,0.4624,0.4644,0.4688,0.4738,0.4793,0.4829,0.4883,0.4955,0.4971,0.4985,0.4988,0.4991,0.4997,0.5038,0.5045,0.4971,0.4971,0.4971,0,0,0.4299,0.4343,0.4372,0.445,0.4489,0.454,0.4538,0.4592,0.463,0.4653,0.4721,0.4755,0.4814,0.4886,0.492,0.4916,0.5021,0.4996,0.4997,0.5002,0.5043,0.505,0.5056,0.4973,0.4973,0.4972,0,0,0.4345,0.4383,0.4434,0.4472,0.453,0.4561,0.4573,0.4635,0.4658,0.4727,0.4745,0.4793,0.4886,0.4927,0.4961,0.5022,0.5034,0.5039,0.5057,0.5097,0.5103,0.5108,0.513,0.5138,0.5045,0.5045,0.5045,0,0.4351,0.4427,0.4459,0.4512,0.4546,0.4567,0.462,0.4657,0.473,0.4754,0.4748,0.4866,0.4907,0.4989,0.5003,0.503,0.5046,0.5031,0.5099,0.5105,0.5111,0.5132,0.514,0.5045,0.5045,0.5045,0.5045,0,0.4433,0.4485,0.4519,0.4588,0.4626,0.4679,0.4719,0.4755,0.4772,0.4804,0.4874,0.4924,0.4989,0.501,0.5028,0.5094,0.509,0.5091,0.508,0.5117,0.5138,0.5147,0.5045,0.5045,0.5045,0.5045,0,0,0.4473,0.4558,0.457,0.4601,0.4667,0.4709,0.4763,0.4824,0.4854,0.4905,0.4951,0.503,0.5031,0.5069,0.5093,0.5127,0.5173,0.5125,0.5127,0.5132,0.525,0.5248,0.5257,0.5181,0.5183,0.5184,0.5244,0,0.4526,0.4621,0.4652,0.4732,0.4781,0.4802,0.485,0.4896,0.4927,0.4975,0.501,0.5065,0.5062,0.5085,0.5121,0.516,0.5197,0.5156,0.5227,0.5229,0.521,0.5268,0.5266,0.532,0.5253,0.5254,0.5255,0,0.4601,0.4651,0.4735,0.4795,0.4817,0.4858,0.4917,0.4962,0.5016,0.5036,0.5078,0.5098,0.5157,0.5143,0.5225,0.5196,0.5227,0.5251,0.5254,0.5261,0.5244,0.5277,0.5338,0.5346,0.5269,0.5267,0.5267,0,0.4622,0.471,0.4772,0.4798,0.4869,0.4898,0.493,0.4982,0.5017,0.5069,0.5092,0.5151,0.5183,0.5229,0.5265,0.5251,0.5345,0.5333,0.5364,0.5363,0.5382,0.538,0.5449,0.5403,0.5402,0.5402,0.5402,0,0.4678,0.4729,0.4782,0.482,0.4878,0.4913,0.497,0.5003,0.5049,0.5095,0.5118,0.5161,0.5206,0.5256,0.5285,0.5349,0.5364,0.5382,0.5389,0.538,0.5378,0.5401,0.5398,0.5405,0.5404,0.5404,0.5403,0,0.4711,0.4748,0.4817,0.4878,0.4895,0.4935,0.4988,0.5027,0.5059,0.5117,0.5132,0.5183,0.5243,0.5283,0.536,0.538,0.5449,0.5455,0.543,0.5433,0.5461,0.5458,0.5547,0.5561,0.5505,0.5505,0.5506,0,0.4744,0.4783,0.4848,0.488,0.4911,0.4962,0.4997,0.5034,0.507,0.5134,0.5165,0.5226,0.5276,0.537,0.5415,0.5474,0.5482,0.5509,0.5491,0.548,0.5482,0.5479,0.5483,0.5512,0.5512,0.5513,0.5513,0,0.4799,0.4815,0.4864,0.492,0.4961,0.5007,0.5054,0.5079,0.5124,0.5164,0.5224,0.5263,0.534,0.54,0.5463,0.5498,0.5513,0.5518,0.5528,0.5519,0.5502,0.5511,0.5437,0.5516,0.5516,0.5515,0.5515,0.5515,0.4833,0.4868,0.492,0.4974,0.5012,0.5055,0.5094,0.5131,0.5181,0.5245,0.5265,0.5327,0.5381,0.5467,0.5502,0.5553,0.5551,0.5565,0.5569,0.5572,0.5572,0.5494,0.5565,0.5565,0.5565,0.5565,0.5565,0,0.4888,0.4922,0.4972,0.5035,0.5078,0.5087,0.5139,0.5175,0.5229,0.5277,0.5326,0.5395,0.5453,0.5503,0.5563,0.5594,0.5603,0.5609,0.5607,0.5615,0.557,0.5555,0.5601,0.5601,0.5601,0.5601,0.5601,0.5601,0.4922,0.4983,0.5006,0.5087,0.5121,0.5181,0.521,0.525,0.5288,0.5364,0.5412,0.5443,0.5492,0.5557,0.5611,0.5624,0.5646,0.565,0.5665,0.5622,0.5618,0.5614,0.56,0.5654,0.5655,0.5705,0.5706,0.5706]},{"header":{"parameterUnit":"m.s-1","parameterCategory":1,"la1":30.2991,"la2":30.254,"lo1":-89.0895,"lo2":-89.0444,"dy":0.0017,"dx":0.0017,"nx":28,"ny":28,"refTime":"2023-09-10T09:00:00:Z","depth":0,"parameterNumber":3,"parameterNumberName":"V-component_of_WINDS"},"data":[0,0,0,0,0,0,0,0,0,0,0,0,0,0,0,0,0,0,0,0,0,0,0,0,0,0,0,0,0,0,0,0,0,0,0,0,0,0,0,0,0,0,0,0,0,0,0,0,0,0,0,0,0,0,0,0,0,0,0.718,0.7181,0,0.7241,0.7242,0.7242,0.7189,0.7186,0.7184,0.7182,0.7247,0.7251,0.7254,0,0,0,0,0,0,0,0,0,0,0,0,0,0.7016,0.7019,0.718,0.7181,0.7182,0.7241,0.7242,0.7243,0.7189,0.7186,0.7184,0.7181,0.7246,0.725,0.7255,0,0,0,0,0,0,0,0,0,0,0,0,0,0.7083,0.702,0.718,0.7162,0.7161,0.7241,0.7242,0.7243,0.719,0.7186,0.7183,0.718,0.7244,0.725,0.7255,0.7357,0,0,0.7273,0.7275,0,0,0,0,0,0,0,0,0.7079,0.7089,0.7164,0.7163,0.7162,0.7204,0.7207,0.7281,0.719,0.7179,0.7182,0.7178,0.7235,0.7242,0.726,0.736,0.7363,0.7273,0.7277,0.7279,0.7281,0,0,0,0,0,0,0,0.7075,0.7086,0.7204,0.7165,0.7164,0.715,0.7156,0.7221,0.7225,0.718,0.7176,0.7184,0.7234,0.7255,0.7261,0.7364,0.7273,0.7278,0.7282,0.7284,0.7543,0.7546,0,0,0,0,0,0,0.7072,0.7083,0.7202,0.7206,0.7112,0.7156,0.7163,0.7194,0.7224,0.7226,0.7186,0.7181,0.7247,0.7255,0.7264,0.738,0.7279,0.7284,0.7288,0.7539,0.7544,0.7547,0,0,0,0,0,0,0.7068,0.7083,0.72,0.7143,0.7157,0.7162,0.7198,0.7197,0.7217,0.7229,0.723,0.7207,0.7245,0.7256,0.7332,0.7382,0.7287,0.7292,0.7535,0.7541,0.7546,0.7616,0,0,0,0,0,0,0.7064,0.7082,0.7122,0.7145,0.716,0.7268,0.7201,0.72,0.7227,0.722,0.7249,0.725,0.7243,0.7324,0.7338,0.7388,0.7296,0.7531,0.7538,0.7544,0.761,0.7623,0.7635,0,0,0,0,0,0.7058,0.7141,0.7124,0.7139,0.721,0.7271,0.728,0.727,0.7231,0.727,0.7277,0.7249,0.7374,0.7333,0.7348,0.74,0.7528,0.7536,0.7543,0.7604,0.7621,0.7635,0,0,0,0,0,0,0.7126,0.7144,0.7125,0.7218,0.7243,0.7262,0.7311,0.7289,0.7327,0.7319,0.7305,0.7311,0.7391,0.7404,0.7357,0.7496,0.7445,0.7456,0.7485,0.7501,0.7514,0.7508,0.7301,0,0,0,0,0,0.7151,0.72,0.7213,0.7293,0.7307,0.7307,0.7334,0.7322,0.7349,0.736,0.7372,0.7399,0.7443,0.7474,0.7516,0.7611,0.7614,0.7654,0.7667,0.7677,0.7687,0.7733,0.7749,0.7573,0.7573,0.7573,0,0,0.7205,0.7221,0.7253,0.7307,0.7326,0.7375,0.7316,0.7373,0.7408,0.7369,0.744,0.745,0.7479,0.7564,0.7602,0.7577,0.7736,0.7687,0.7695,0.7699,0.7742,0.7759,0.7774,0.7578,0.7577,0.7577,0,0,0.7327,0.7345,0.7411,0.7429,0.7457,0.7456,0.7471,0.7493,0.7497,0.7569,0.7538,0.7581,0.766,0.7679,0.77,0.7823,0.7798,0.7838,0.7904,0.7949,0.7962,0.7975,0.8015,0.803,0.7847,0.7847,0.7848,0,0.739,0.7463,0.7448,0.7505,0.7528,0.7491,0.7556,0.7576,0.7617,0.7633,0.7603,0.7697,0.7715,0.7801,0.783,0.785,0.7865,0.7834,0.7962,0.7974,0.7985,0.8023,0.8038,0.7852,0.7851,0.7851,0.785,0,0.7537,0.7587,0.7637,0.7674,0.7703,0.7764,0.7757,0.7788,0.7774,0.7775,0.7846,0.7865,0.7907,0.7928,0.7916,0.8011,0.7994,0.7964,0.7911,0.8006,0.8041,0.8056,0.7858,0.7856,0.7855,0.7854,0,0,0.7705,0.7729,0.7747,0.7761,0.7786,0.7825,0.7883,0.7922,0.7947,0.7976,0.8022,0.8087,0.8057,0.808,0.807,0.811,0.8201,0.8074,0.8074,0.8093,0.8302,0.8322,0.834,0.8184,0.8187,0.8189,0.8298,0,0.7824,0.7923,0.7909,0.8003,0.8047,0.8011,0.8061,0.8081,0.8083,0.812,0.8123,0.8167,0.8127,0.8139,0.8178,0.8182,0.8242,0.8174,0.8225,0.8227,0.8216,0.8359,0.8382,0.8483,0.8312,0.8315,0.8316,0,0.7977,0.8007,0.8105,0.8118,0.8136,0.8181,0.8213,0.825,0.8271,0.8269,0.8293,0.8274,0.8329,0.8276,0.8351,0.8305,0.8324,0.8329,0.8333,0.8335,0.8276,0.8362,0.8516,0.853,0.8339,0.8337,0.8335,0,0.8084,0.815,0.8215,0.8229,0.8247,0.8278,0.8288,0.8305,0.8328,0.8357,0.8371,0.8407,0.8426,0.8454,0.8444,0.8407,0.8519,0.8466,0.8516,0.8517,0.854,0.8538,0.8697,0.8559,0.8558,0.8558,0.8558,0,0.8217,0.8278,0.8262,0.8303,0.8368,0.8351,0.8416,0.8421,0.8436,0.8475,0.8448,0.8485,0.8471,0.8507,0.85,0.856,0.857,0.8568,0.8565,0.8569,0.8569,0.858,0.8572,0.8562,0.8561,0.856,0.856,0,0.8348,0.8341,0.8408,0.8419,0.8422,0.847,0.8478,0.8515,0.8513,0.8562,0.8573,0.857,0.8611,0.8604,0.865,0.8645,0.8719,0.8709,0.8711,0.8707,0.8756,0.875,0.8925,0.8946,0.8797,0.8799,0.88,0,0.8432,0.8477,0.849,0.8513,0.8523,0.8562,0.8584,0.8568,0.8592,0.8616,0.8649,0.8687,0.8716,0.8782,0.8784,0.8818,0.8806,0.8865,0.8811,0.8812,0.8802,0.8798,0.8801,0.8875,0.8877,0.8878,0.8879,0,0.858,0.8573,0.8605,0.8635,0.8661,0.8684,0.8705,0.8726,0.8711,0.8739,0.8779,0.8801,0.8845,0.8882,0.8912,0.8921,0.8897,0.8896,0.8909,0.8912,0.8909,0.8907,0.8736,0.8892,0.8891,0.889,0.8889,0.8888,0.8687,0.8723,0.8736,0.8772,0.8785,0.8803,0.8836,0.8837,0.8869,0.8902,0.8891,0.8935,0.8951,0.8989,0.9001,0.9034,0.9012,0.9032,0.9036,0.9041,0.9044,0.8906,0.9041,0.904,0.904,0.9039,0.9039,0,0.883,0.8836,0.8868,0.8896,0.8923,0.8896,0.8916,0.8941,0.8979,0.8995,0.9023,0.9066,0.91,0.9103,0.9135,0.9161,0.915,0.9169,0.9166,0.9167,0.9064,0.9048,0.9177,0.9177,0.9177,0.9177,0.9177,0.9177,0.8908,0.8965,0.8959,0.9021,0.9027,0.9068,0.9081,0.9097,0.9109,0.9157,0.9184,0.9186,0.9195,0.9227,0.9256,0.9256,0.9267,0.929,0.9285,0.9189,0.9175,0.9162,0.9146,0.9293,0.9293,0.9384,0.9385,0.9386]}]]